Location: Cairo Junction
(37.0409°N, 89.1917°W)
Time: 01:05:29
(UTC+00:00)

Daily predictions for brighter satellites

Satellite Brightness Start Highest point End
(mag) Time Altitude Azimuth Time Altitude Azimuth Time Altitude Azimuth
Cosmos 1486 Rocket 4.5 01:20:15 10° SSW 01:25:33 71° WNW 01:30:53 10° NNE
Cosmos 1745 Rocket 4.3 01:23:35 10° N 01:29:29 46° E 01:35:19 10° SSE
SL-4 R/B 3.1 01:26:04 10° WNW 01:30:14 44° SW 01:34:38 10° SSE
Cosmos 1844 4.3 01:26:51 10° SSW 01:32:31 63° WNW 01:38:10 10° NNE
SL-08 ROCKET BODY 4.3 01:31:02 10° N 01:36:56 80° E 01:42:45 10° S
Cosmos 1242 Rocket 2.6 01:38:09 10° S 01:41:38 53° E 01:45:06 10° NNE
USA 186 1.1 01:39:45 10° S 01:42:15 79° WSW 01:44:37 10° NNW
Resurs 01 Rocket 3.1 01:41:39 11° ESE 01:44:45 21° ENE 01:48:05 10° NNE
GPS 2-04 Rocket1 2.8 01:41:00 10° WSW 01:45:07 67° S 01:49:11 10° E
S3M 4.0 01:39:33 10° S 01:45:55 78° E 01:52:15 10° N
X-37B 1.5 01:48:44 10° NW 01:51:48 41° NNE 01:54:18 14° E
Cosmos 2315 Rocket 4.3 01:50:34 10° SSE 01:56:37 48° E 02:02:42 10° NNE
Delta 2 Rocket 3.9 01:53:37 10° WSW 01:58:48 58° SSE 02:03:03 12° E
OBJECT-B 1.0 01:56:21 10° S 01:59:33 69° W 02:02:47 10° NNW
Cosmos 1805 Rocket 3.7 01:56:26 10° N 02:00:48 76° W 02:05:09 10° S
ERS-2 3.9 01:58:03 10° N 02:01:22 34° WNW 02:04:40 10° SW
Cosmos 1633 Rocket 3.6 02:01:08 10° N 02:05:18 40° E 02:07:58 19° SE
Cosmos 1328 Rocket 3.8 02:05:04 10° SSE 02:09:21 50° E 02:13:37 10° NNE
USA 267 3.9 02:03:08 10° SSE 02:09:26 51° SW 02:15:47 10° NW
ISS -2.8 02:10:58 10° SSW 02:13:27 27° SSE 02:13:27 27° SSE
Cosmos 1777 Rocket 3.9 02:10:23 10° S 02:15:32 71° ESE 02:20:43 10° NNE
USA 290 3.4 02:14:18 10° NW 02:17:19 39° WSW 02:19:47 14° S
Cosmos 1470 Rocket 4.5 02:15:49 10° NNE 02:19:52 33° ENE 02:21:26 25° ESE
Meteor 1-26 Rocket 4.2 02:14:50 10° S 02:20:32 87° W 02:26:05 10° N
Cosmos 2082 Rocket 3.9 02:16:46 10° N 02:20:39 19° NE 02:23:13 14° E
Ariane Rocket 3.0 02:16:50 13° S 02:21:24 81° WSW 02:26:30 10° NNW
Cosmos 1602 3.6 02:19:47 10° N 02:23:40 81° E 02:25:55 24° S
Cosmos 1437 2.3 02:25:45 26° SSW 02:27:10 82° W 02:30:00 10° N
Tianhe-1 1.3 02:25:22 10° SW 02:28:15 44° SSE 02:28:15 44° SSE
Resurs 1-3 3.9 02:27:18 16° S 02:30:42 66° W 02:35:04 10° NNW
IRIS 3.6 02:29:30 10° WNW 02:31:51 76° NNE 02:32:05 67° ENE
ARIANE 5 R/B 4.0 02:31:08 20° E 02:31:55 21° ENE 02:35:11 10° NNE
OAO 3 Rocket 3.5 02:28:38 10° SW 02:32:59 41° SSE 02:34:13 34° SE
COSMOS 2406 3.7 02:29:00 10° N 02:34:27 46° ENE 02:36:56 29° ESE
Cosmos 1782 3.4 02:30:38 10° SSW 02:34:34 56° W 02:38:29 10° N
Cosmos 1666 Rocket 3.7 02:31:26 10° NNW 02:35:47 70° W 02:38:36 21° S
DELTA 2 R/B (1) 4.3 02:30:49 10° W 02:36:00 41° SSW 02:38:23 27° SSE
Cosmos 1943 Rocket 4.2 02:39:12 12° ENE 02:39:12 12° ENE 02:40:00 10° ENE
Cosmos 1812 2.6 02:37:33 39° SSE 02:38:48 64° E 02:42:38 10° NNE
SJ 16-02 1.3 02:36:32 23° S 02:39:09 63° ESE 02:43:33 10° NNE
Cosmos 2278 Rocket 2.2 02:35:03 10° SSW 02:40:42 84° WNW 02:46:23 10° NNE
Meteor 1-14 Rocket 4.2 02:38:09 10° N 02:43:58 75° E 02:46:52 30° SSE
Meteor 2-6 Rocket 4.1 02:41:00 24° S 02:44:12 64° E 02:49:40 10° NNE
Iridium 4 Rocket 4.2 02:42:48 32° SE 02:44:49 43° E 02:50:21 10° NNE
Cosmos 1666 3.6 02:42:23 10° NNE 02:45:30 31° ENE 02:45:30 31° ENE
Landsat 7 3.7 02:45:52 35° SSE 02:47:51 80° ENE 02:52:37 10° N
Cosmos 1151 Rocket 4.4 02:47:56 10° SSW 02:51:58 38° WNW 02:56:04 10° N
Meteor 1-27 Rocket 4.4 02:52:26 33° ESE 02:53:20 35° E 02:58:38 10° NNE
USA 305 4.0 02:52:42 10° NNW 02:56:36 33° NE 02:57:39 29° ENE
ATLAS 5 CENTAUR R/B 3.3 02:51:37 10° NW 02:57:19 43° WSW 03:01:21 22° S
CZ-4C R/B 3.0 02:52:57 10° NNW 03:00:34 84° ENE 03:04:45 34° SE
NOSS 3-4 (A) 4.4 02:56:56 10° NNW 03:03:49 49° NE 03:07:09 31° ESE
NOSS 3-4 (C) 4.4 02:57:03 10° NNW 03:03:56 48° NE 03:07:15 31° ESE
IGS 5A 4.0 03:03:39 36° SSW 03:04:59 52° W 03:09:03 10° NNW
SPOT 1/Viking Rocket 3.5 03:03:30 46° SSE 03:05:04 79° ENE 03:10:16 10° N
Cosmos 1500 4.1 03:12:29 10° NNW 03:16:00 40° W 03:16:32 37° WSW
USA 306 3.5 03:12:02 10° NW 03:16:10 46° NE 03:16:24 45° NE
ATLAS 2AS CENTAUR R/B 3.8 03:10:28 10° NNW 03:17:00 34° NE 03:19:41 26° E
Cosmos 2154 Rocket 4.3 03:11:25 10° N 03:17:28 46° E 03:18:30 43° ESE
Cosmos 1833 Rocket 2.7 03:14:34 10° NNW 03:20:12 72° WSW 03:21:40 50° S
SPOT 3 Rocket 4.4 03:18:17 27° SSW 03:20:33 43° W 03:25:28 10° NNW
Resurs 01 Rocket 3.1 03:19:13 23° SW 03:21:01 31° W 03:24:59 10° NW
Cosmos 2228 Rocket 3.0 03:21:24 71° ENE 03:21:24 71° ENE 03:25:36 10° N
Nadezhda 1 Rocket 4.0 03:21:49 51° SSE 03:23:17 66° E 03:29:28 10° NNE
GPS 2-04 Rocket1 3.5 03:20:24 10° W 03:23:21 43° WSW 03:23:21 43° WSW
Cosmos 2184 Rocket 3.8 03:18:17 10° N 03:24:30 80° E 03:26:01 54° SSE
Cosmos 1536 4.2 03:22:02 10° N 03:24:37 30° NE 03:24:37 30° NE
Cosmos 2074 Rocket 3.9 03:20:05 10° N 03:26:26 86° E 03:28:08 52° S
Meteor 1-11 Rocket 3.8 03:21:21 10° N 03:27:17 66° E 03:28:07 58° ESE
X-37B 3.2 03:25:34 10° W 03:26:35 17° W 03:26:35 17° W
Spot 2 Rocket 3.4 03:28:09 68° S 03:28:49 83° WSW 03:33:53 10° NNW
Cosmos 1538 Rocket 4.2 03:24:23 10° NNW 03:29:40 66° WSW 03:30:36 55° SSW
ERS-1 Rocket 2.9 03:29:55 65° E 03:30:04 65° ENE 03:35:03 10° N
Cosmos 1937 Rocket 4.4 03:33:12 35° ENE 03:33:12 35° ENE 03:36:40 10° NNE
Delta 2 Rocket 4.2 03:36:14 10° W 03:39:54 48° WSW 03:39:54 48° WSW
Cosmos 2297 3.5 03:42:09 76° SE 03:42:16 76° ESE 03:47:57 10° NNE
Cosmos 1869 Rocket 4.1 03:39:01 10° N 03:42:25 53° NNE 03:42:25 53° NNE
USA 307 3.5 03:39:32 10° NW 03:42:59 55° NNW 03:42:59 55° NNW
Cosmos 1680 Rocket 3.9 03:40:00 10° N 03:44:59 53° ENE 03:44:59 53° ENE
Cosmos 967 Rocket 4.3 03:45:38 51° SSW 03:47:21 89° ESE 03:53:39 10° NNE
Cosmos 1271 Rocket 4.4 03:46:58 28° W 03:47:29 30° WNW 03:51:03 10° NNW
Cosmos 1610 Rocket 4.3 03:43:43 10° N 03:49:52 83° E 03:50:27 74° SSE
Milstar 3 3.6 03:41:20 10° WSW 03:54:52 53° S 03:56:12 50° SSE
Terra 2.1 03:56:00 63° N 03:56:00 63° N 04:00:03 10° N
USA 308 4.0 03:53:15 10° NW 03:56:12 43° NW 03:56:12 43° NW
Cosmos 44 4.1 03:54:32 10° NNW 03:59:24 46° NE 03:59:24 46° NE
Cosmos 2082 Rocket 2.4 03:59:37 10° NNW 04:05:04 60° WSW 04:05:04 60° WSW
ARIANE 5 R/B 4.2 04:08:41 28° W 04:08:41 28° W 04:11:58 10° NW
Cosmos 1295 Rocket 4.4 04:05:14 10° N 04:11:35 76° W 04:11:59 73° SW
SPOT 5 3.7 04:12:49 48° W 04:12:49 48° W 04:17:39 10° NNW
Cosmos 1818 4.4 04:09:20 10° NNW 04:14:10 41° NE 04:14:10 41° NE
Cosmos 1898 Rocket 4.2 04:14:18 48° W 04:14:47 50° WNW 04:19:58 10° N
Cosmos 2341 Rocket 4.0 04:09:57 10° N 04:16:10 70° ENE 04:16:10 70° ENE
SJ 16-02 4.4 04:16:50 10° WNW 04:18:09 11° WNW 04:19:29 10° NW
Cosmos 1943 Rocket 2.4 04:20:39 68° NW 04:20:39 68° NW 04:25:59 10° NNE
Cosmos 2218 Rocket 4.4 04:21:03 10° N 04:26:40 53° ENE 04:26:40 53° ENE
Cosmos 2369 Rocket 2.9 04:33:00 45° NE 04:33:00 45° NE 04:36:52 10° NNE
SL-8 Rocket 4.1 04:39:32 10° N 04:45:15 74° NNW 04:45:15 74° NNW
Cosmos 1238 Rocket 4.3 04:41:17 10° N 04:45:44 51° NNW 04:45:44 51° NNW
Gbstr 26 Del rocket 4.3 04:56:38 10° NW 05:03:26 58° NNE 05:03:26 58° NNE
ATLAS 2AS CENTAUR R/B 3.3 05:01:21 10° NW 05:07:06 45° W 05:07:06 45° W
Meteor 2-4 Rocket 4.4 05:12:56 51° N 05:12:56 51° N 05:17:07 10° N
Cosmos 1821 Rocket 4.4 05:40:23 10° N 05:45:32 60° NNW 05:45:32 60° NNW
SeaSat 1 4.1 05:58:35 10° NNE 06:01:03 30° NE 06:01:03 30° NE
ATLAS CENTAUR R/B 4.4 06:06:18 12° N 06:06:18 12° N 06:06:42 10° N
Cosmos 2369 Rocket 4.4 06:14:44 15° WNW 06:15:52 15° NW 06:19:08 10° NNW
Lacrosse 5 3.4 06:27:22 34° N 06:27:22 34° N 06:30:32 10° NNE
CZ-2D R/B 4.0 06:30:03 10° NE 06:33:07 21° ENE 06:33:07 21° ENE
Resurs 1-4 Rocket 3.8 06:36:02 10° NE 06:39:15 24° ENE 06:39:15 24° ENE
USA 215 3.9 06:39:06 29° E 06:42:18 52° NE 06:48:37 10° NW
USA 281 4.2 06:49:16 32° E 06:51:30 42° ENE 06:57:35 10° N
Cosmos 1605 Rocket 4.3 06:46:24 10° N 06:51:33 59° NW 06:51:33 59° NW
Cosmos 1980 Rocket 4.4 06:54:10 14° E 06:54:10 14° E 06:56:51 10° ENE
Cosmos 2227 Rocket 3.6 07:03:58 10° N 07:09:01 33° ENE 07:10:56 26° E
Cosmos 2297 Rocket 3.0 07:06:22 10° N 07:11:49 46° ENE 07:12:27 44° E
Cosmos 1656 4.0 07:26:41 59° NNW 07:26:41 59° NNW 07:31:21 10° NNE
Cosmos 1025 Rocket 4.4 07:31:57 35° ENE 07:31:57 35° ENE 07:35:05 10° NNE
Cosmos 2100 Rocket 3.9 07:26:19 10° N 07:32:40 89° W 07:32:47 87° SSW
Cosmos 2251 Rocket 3.8 07:28:38 10° NNW 07:33:16 65° NNE 07:33:16 65° NNE
Cosmos 2123 Rocket 4.1 07:33:54 62° ESE 07:34:26 65° E 07:40:34 10° NNE
Cosmos 1802 Rocket 4.0 07:28:45 10° N 07:34:53 70° E 07:35:31 65° ESE
Cosmos 614 Rocket 4.3 07:32:54 10° N 07:37:56 58° ENE 07:37:57 58° ENE
IDEFIX/ARIANE 42P 4.3 07:43:03 10° NE 07:47:15 24° E 07:48:53 20° ESE
Cosmos 371 Rocket 4.1 07:48:59 43° NW 07:48:59 43° NW 07:52:50 10° N
COSMOS 2455 2.9 07:42:15 10° NNW 07:47:29 62° WNW 07:47:29 62° WNW
Helios 1B rocket 3.6 07:45:03 10° N 07:47:45 39° N 07:47:45 39° N
Cosmos 332 Rocket 4.1 07:53:44 62° NNW 07:53:44 62° NNW 07:57:56 10° NNE
Cosmos 2219 3.0 07:50:43 10° NNW 07:56:27 86° WSW 07:56:43 82° S
SL-16 R/B 2.4 08:00:37 66° SSW 08:01:21 74° WSW 08:07:38 10° NNW
Lacrosse 4 Rocket 1.9 08:02:37 62° N 08:02:37 62° N 08:06:22 10° NNE
Cosmos 1544 Rocket 3.8 08:00:35 10° N 08:04:39 68° NE 08:04:39 68° NE
Cosmos 1953 3.5 08:02:00 10° N 08:04:27 36° NNW 08:04:27 36° NNW
ADEOS II 2.0 08:01:03 10° NNE 08:06:19 75° ESE 08:06:52 68° SSE
Lacrosse 5 4.4 08:07:22 10° NW 08:09:41 13° NNW 08:11:58 10° N
AQUA 3.9 08:06:44 10° N 08:11:12 62° WNW 08:11:12 62° WNW
SL-08 R/B 4.4 08:05:21 10° N 08:11:45 84° W 08:13:31 51° S
NPP 3.9 08:08:33 10° N 08:13:46 52° WNW 08:14:01 51° W
CZ-2D R/B 2.7 08:09:18 10° N 08:14:19 41° WNW 08:14:26 41° WNW
Cosmos 1455 Rocket 4.1 08:10:49 10° NNW 08:13:38 35° NW 08:13:38 35° NW
ADEOS Rocket 3.8 08:12:28 13° SSE 08:19:09 67° ENE 08:26:52 10° N
Resurs 1-4 Rocket 2.9 08:15:29 10° N 08:20:12 35° WNW 08:20:20 35° WNW
Cosmos 1536 Rocket 3.5 08:20:10 82° ESE 08:20:12 82° E 08:24:39 10° N
BREEZE-M DEB (TANK) 3.9 08:19:53 33° WNW 08:21:54 51° NNW 08:34:48 10° ENE
Meteor 2-5 Rocket 3.9 08:21:34 41° SSE 08:23:33 67° E 08:29:08 10° NNE
Cosmos 1697 Rocket 3.1 08:24:06 42° W 08:24:51 44° WNW 08:30:13 10° N
Cosmos 2360 4.4 08:24:06 49° W 08:25:00 54° WNW 08:30:38 10° NNE
USA 215 3.7 08:26:21 39° WSW 08:26:21 39° WSW 08:31:28 10° WNW
Cosmos 407 Rocket 3.5 08:22:00 10° NNW 08:27:23 86° ENE 08:29:41 35° SSE
Cosmos 1725 Rocket 4.0 08:22:01 10° NNW 08:28:09 61° W 08:29:35 48° SW
Atlas Centaur 2 3.9 08:28:29 25° S 08:29:19 26° SSE 08:34:51 10° ESE
GP-B 3.0 08:25:50 10° N 08:30:17 89° E 08:30:46 71° S
Meteor 1-16 Rocket 4.5 08:25:08 10° NNW 08:30:47 49° W 08:31:25 47° WSW
CZ-4C R/B 4.2 08:29:51 27° SE 08:31:57 52° ENE 08:36:00 10° N
Cosmos 1624 Rocket 4.0 08:32:24 56° SW 08:33:22 68° WNW 08:38:41 10° NNE
SL-14 R/B 3.5 08:34:44 59° NW 08:34:44 59° NW 08:38:16 10° N
CBERS-1 3.9 08:29:51 10° NNE 08:34:59 89° WNW 08:36:21 50° SSW
USA 281 3.8 08:36:07 34° WSW 08:36:07 34° WSW 08:41:51 10° NW
Cosmos 2233 Rocket 3.8 08:30:55 10° N 08:37:06 82° W 08:40:08 32° S
Cosmos 1980 Rocket 2.2 08:35:56 49° SW 08:37:23 70° WNW 08:43:04 10° NNE
CENTAUR R/B 4.3 08:34:15 11° SSE 08:38:02 21° ESE 08:42:34 10° ENE
Cosmos 1626 3.6 08:42:30 25° NW 08:42:30 25° NW 08:44:46 10° NNW
Cosmos 2016 Rocket 4.5 08:36:26 10° NNW 08:42:06 38° W 08:43:02 36° WSW
ISS -0.9 08:41:57 10° NNW 08:44:31 20° NNE 08:47:04 10° ENE
Spot 1 4.3 08:46:49 23° SSE 08:49:43 82° ENE 08:54:37 10° N
DELTA 2 DEB (DPAF) 4.3 08:51:43 48° WSW 08:52:06 50° W 08:56:27 10° NNW
Cosmos 1452 Rocket 4.0 08:49:49 25° S 08:52:42 57° ESE 08:57:53 10° NNE
Cosmos 2227 Rocket 3.0 08:48:03 10° NW 08:52:41 31° W 08:52:41 31° W
Cosmos 2056 Rocket 4.0 08:53:58 36° WSW 08:55:10 41° WNW 09:00:01 10° N
Cosmos 2297 Rocket 3.6 08:51:14 10° NW 08:54:12 20° W 08:54:12 20° W
Cosmos 1954 Rocket 4.3 08:50:26 10° NNW 08:55:42 70° ENE 09:00:59 10° SSE
Cosmos 2285 Rocket 4.3 08:55:09 33° SW 08:57:45 53° WNW 09:04:02 10° N
Cosmos 220 Rocket 4.0 08:56:53 41° SSW 08:58:23 89° E 09:02:49 10° NNE
Cosmos 1300 2.6 08:55:27 10° NNW 08:59:13 63° W 08:59:48 54° SW
Cosmos 2278 4.0 08:57:34 34° WSW 08:59:41 52° WNW 09:05:17 10° NNE
Cosmos 1346 Rocket 3.7 09:04:06 17° SSE 09:06:47 44° E 09:10:31 10° NNE
IRS-1C 4.1 09:01:36 10° N 09:06:57 79° WNW 09:10:05 26° SSW
CZ-2C R/B 3.9 09:03:15 10° NNE 09:07:58 35° E 09:12:40 10° SSE
Cosmos 2082 3.9 09:03:23 10° NW 09:08:49 47° WSW 09:12:48 18° S
OAO 2 Rocket 3.4 09:08:21 29° WSW 09:11:02 71° S 09:16:20 10° E
SL-16 R/B 2.6 09:08:41 18° S 09:12:51 62° ESE 09:18:26 10° NNE
Cosmos 1455 4.1 09:11:39 10° NNE 09:15:06 31° ENE 09:18:33 10° SE
MSX 3.8 09:09:34 10° N 09:15:20 72° WNW 09:19:17 21° SSW
Cosmos 1140 Rocket 4.2 09:16:49 10° NW 09:21:25 32° W 09:23:28 24° SW
SL-08 R/B 3.3 09:17:24 10° SSE 09:22:06 85° ENE 09:26:46 10° NNW
Cosmos 1892 Rocket 3.5 09:21:23 16° S 09:24:49 84° E 09:29:10 10° N
Cosmos 1340 3.8 09:24:28 24° W 09:25:07 26° WNW 09:28:18 10° NNW
IDEFIX/ARIANE 42P 3.3 09:22:03 10° N 09:26:52 38° WNW 09:29:43 21° WSW
NOSS 3-2 (C) 4.1 09:24:42 11° S 09:29:34 46° ESE 09:35:17 10° NE
Cosmos 1072 Rocket 4.5 09:23:43 10° N 09:30:04 79° W 09:36:27 10° S
USA 32 4.3 09:32:20 10° N 09:37:37 75° E 09:42:51 10° S
Okean 1-7 Rocket 3.9 09:35:21 10° S 09:39:51 70° E 09:44:25 10° NNE
Cosmos 2322 Rocket 2.3 09:34:49 12° SSW 09:40:05 82° ESE 09:45:48 10° NNE
Meteor 2-10 Rocket 3.7 09:35:13 10° NNW 09:40:48 61° W 09:46:09 10° S
CZ-2C R/B 3.1 09:38:18 10° NNE 09:42:19 72° E 09:46:21 10° S
Cosmos 1891 Rocket 4.5 09:37:55 10° NNW 09:43:49 58° W 09:49:41 10° S
ADEOS II 4.1 09:43:02 10° NW 09:45:19 13° WNW 09:47:35 10° W
ARIANE 5 R/B 3.1 09:41:22 10° N 09:46:08 41° WNW 09:50:05 14° SW
Cosmos 2058 Rocket 3.3 09:42:18 10° N 09:46:50 77° E 09:51:20 10° S
Cosmos 2263 Rocket 2.1 09:42:38 10° NNW 09:48:16 69° WSW 09:53:54 10° S
Cosmos 1726 Rocket 3.6 09:45:12 10° NNW 09:49:30 56° W 09:53:49 10° S
Cosmos 1606 Rocket 4.0 09:45:24 10° NNW 09:49:34 42° W 09:53:45 10° SSW
Cosmos 2228 3.8 09:47:25 10° NNW 09:51:14 32° W 09:55:05 10° SSW
NOSS 3-2 (A) 3.4 09:47:34 15° SW 09:52:08 65° NW 09:58:17 10° NNE
CZ-4B R/B 4.5 09:51:58 10° N 09:56:21 31° WNW 10:00:26 12° SW
Meteor 1-21 Rocket 4.2 09:52:57 10° S 09:58:34 82° W 10:04:08 10° N
Tsikada Rocket 4.1 09:56:03 10° S 10:02:28 81° W 10:08:51 10° N
Cosmos 2360 Rocket 2.5 09:57:10 10° SSW 10:02:47 71° ESE 10:08:26 10° NNE
Cosmos 2219 Rocket 4.3 09:58:46 10° SSE 10:03:15 25° ESE 10:07:46 10° NE
USA 238 DEB 3.7 09:59:31 10° SW 10:06:00 72° WNW 10:12:47 10° NNE
USA 238 3.7 09:59:37 10° SW 10:06:07 72° NW 10:12:54 10° NNE
IRAS Rocket 4.4 10:01:16 10° SSE 10:06:49 82° ENE 10:12:28 10° NNW
Cosmos 1241 Rocket 4.5 10:01:08 10° NNW 10:07:35 76° WSW 10:13:50 10° SSE
Aureole 2 Rocket 3.7 10:08:09 10° WNW 10:09:38 14° W 10:11:05 10° SW
CZ-3B R/B 3.4 10:09:42 10° S 10:10:15 10° S 10:10:51 10° SSE
Cosmos 2237 4.2 10:05:54 10° SSW 10:11:37 79° WNW 10:17:21 10° NNE
Cosmos 1441 Rocket 3.7 10:08:29 10° S 10:12:20 65° E 10:16:17 10° NNE
BREEZE-M DEB (TANK) 3.9 10:04:12 10° NW 10:14:31 50° SW 10:17:50 10° SSE
Cosmos 1602 Rocket 3.9 10:10:27 10° S 10:14:43 68° E 10:19:04 10° NNE
Atlas Centaur 2 3.2 10:11:23 10° WSW 10:18:17 42° S 10:23:54 10° ESE
ISS -3.6 10:18:13 10° WNW 10:21:31 52° SW 10:24:48 10° SSE
Cosmos 1626 Rocket 3.6 10:18:28 10° SSW 10:22:49 66° W 10:27:13 10° N
Cosmos 1302 Rocket 4.2 10:19:06 10° SSW 10:24:22 84° ESE 10:29:41 10° NNE
Cosmos 2034 Rocket 4.4 10:20:19 10° NNW 10:26:14 43° W 10:32:04 10° SSW
